• In Uzbekistan
  • List of Countries
  • For 7 days
  • Water Temperature
  • Satellite Maps
  • Weather Map
  • Weather Widgets
  • user-avatar
    Login

    Hourly Weather Aichach

    Today, 19 January, Friday

    Time Temperature Precipitation Wind Pressure Humidity
    00:00 +3°C° 1.7 mm 3 mps 711 mmHg 92%
    01:00 +3°C° 1.7 mm 2 mps 711 mmHg 94%
    02:00 +1°C° 1.1 mm 4 mps 711 mmHg 91%
    03:00 +2°C° 1.1 mm 5 mps 712 mmHg 88%
    04:00 +2°C° 1.1 mm 6 mps 712 mmHg 85%
    05:00 +2°C° 0.2 mm 6 mps 712 mmHg 84%
    06:00 +1°C° 0.2 mm 6 mps 713 mmHg 84%
    07:00 +1°C° 0.2 mm 6 mps 713 mmHg 83%
    08:00 +1°C° 0 mm 6 mps 714 mmHg 82%
    09:00 +1°C° 0 mm 6 mps 715 mmHg 81%
    10:00 -1°C° 0 mm 7 mps 715 mmHg 80%
    11:00 0°C° 0.1 mm 7 mps 716 mmHg 77%
    12:00 0°C° 0.1 mm 7 mps 716 mmHg 75%
    13:00 0°C° 0.1 mm 7 mps 716 mmHg 72%
    14:00 +1°C° 0.1 mm 6 mps 717 mmHg 74%
    15:00 +1°C° 0.1 mm 5 mps 717 mmHg 76%
    16:00 0°C° 0.1 mm 4 mps 717 mmHg 77%
    17:00 0°C° 0.1 mm 4 mps 717 mmHg 80%
    18:00 0°C° 0.1 mm 3 mps 718 mmHg 83%
    19:00 -1°C° 0.1 mm 3 mps 718 mmHg 86%
    20:00 -1°C° 0 mm 3 mps 718 mmHg 87%
    21:00 -1°C° 0 mm 3 mps 718 mmHg 87%
    22:00 -1°C° 0 mm 3 mps 718 mmHg 88%
    23:00 -2°C° 0.1 mm 4 mps 718 mmHg 88%

    Tomorrow, 20 January, Saturday

    Time Temperature Precipitation Wind Pressure Humidity
    00:00 -2°C° 0.1 mm 4 mps 718 mmHg 89%
    01:00 -2°C° 0.1 mm 4 mps 718 mmHg 90%
    02:00 -1°C° 0.3 mm 4 mps 718 mmHg 89%
    03:00 -1°C° 0.3 mm 5 mps 717 mmHg 88%
    04:00 -1°C° 0.3 mm 5 mps 717 mmHg 87%
    05:00 -1°C° 0.3 mm 5 mps 717 mmHg 87%
    06:00 -1°C° 0.3 mm 5 mps 717 mmHg 87%
    07:00 -1°C° 0.3 mm 5 mps 717 mmHg 88%
    08:00 -1°C° 0.5 mm 5 mps 717 mmHg 87%
    09:00 -1°C° 0.5 mm 5 mps 717 mmHg 87%
    10:00 -1°C° 0.5 mm 5 mps 717 mmHg 87%
    11:00 -1°C° 0.5 mm 4 mps 716 mmHg 87%
    12:00 0°C° 0.5 mm 4 mps 715 mmHg 88%
    13:00 +1°C° 0.5 mm 3 mps 714 mmHg 88%
    14:00 +1°C° 0.4 mm 3 mps 713 mmHg 89%
    15:00 +1°C° 0.4 mm 3 mps 712 mmHg 89%
    16:00 +2°C° 0.4 mm 2 mps 711 mmHg 90%
    17:00 +1°C° 0.9 mm 2 mps 711 mmHg 91%
    18:00 +1°C° 0.9 mm 2 mps 710 mmHg 92%
    19:00 -1°C° 0.9 mm 3 mps 710 mmHg 94%
    20:00 0°C° 0.8 mm 3 mps 710 mmHg 94%
    21:00 -1°C° 0.8 mm 4 mps 710 mmHg 94%
    22:00 -1°C° 0.8 mm 5 mps 710 mmHg 94%
    23:00 -2°C° 0.5 mm 6 mps 711 mmHg 93%

    Day after tomorrow, 21 January, Sunday

    Time Temperature Precipitation Wind Pressure Humidity
    00:00 -2°C° 0.5 mm 7 mps 712 mmHg 91%
    01:00 -2°C° 0.5 mm 8 mps 712 mmHg 90%
    02:00 -3°C° 0 mm 7 mps 714 mmHg 90%
    03:00 -4°C° 0 mm 6 mps 715 mmHg 90%
    04:00 -4°C° 0 mm 5 mps 717 mmHg 91%
    05:00 -4°C° 0.1 mm 5 mps 718 mmHg 91%
    06:00 -4°C° 0.1 mm 4 mps 719 mmHg 92%
    07:00 -4°C° 0.1 mm 4 mps 720 mmHg 92%
    08:00 -4°C° 0 mm 4 mps 720 mmHg 91%
    09:00 -4°C° 0 mm 4 mps 721 mmHg 91%
    10:00 -4°C° 0 mm 3 mps 721 mmHg 90%
    11:00 -2°C° 0 mm 3 mps 721 mmHg 90%
    12:00 -1°C° 0 mm 3 mps 721 mmHg 89%
    13:00 -1°C° 0 mm 3 mps 722 mmHg 88%
    14:00 -1°C° 0 mm 2 mps 721 mmHg 89%
    15:00 +1°C° 0 mm 1 mps 721 mmHg 90%
    16:00 +1°C° 0 mm 1 mps 721 mmHg 90%
    17:00 +1°C° 0 mm 1 mps 721 mmHg 91%
    18:00 0°C° 0 mm 1 mps 721 mmHg 91%
    19:00 -2°C° 0 mm 2 mps 721 mmHg 92%
    20:00 -2°C° 0.1 mm 2 mps 721 mmHg 92%
    21:00 -2°C° 0.1 mm 2 mps 721 mmHg 92%
    22:00 -2°C° 0.1 mm 2 mps 720 mmHg 92%
    23:00 -2°C° 0.2 mm 2 mps 720 mmHg 92%

    22 January, Monday

    Time Temperature Precipitation Wind Pressure Humidity
    00:00 -2°C° 0.2 mm 2 mps 720 mmHg 93%
    01:00 -1°C° 0.2 mm 2 mps 719 mmHg 93%
    02:00 -1°C° 0.8 mm 2 mps 719 mmHg 94%
    03:00 -1°C° 0.8 mm 2 mps 719 mmHg 96%
    04:00 +1°C° 0.8 mm 2 mps 719 mmHg 97%
    05:00 0°C° 1 mm 3 mps 719 mmHg 97%
    06:00 0°C° 1 mm 3 mps 719 mmHg 98%
    07:00 +1°C° 1 mm 3 mps 719 mmHg 99%
    08:00 +1°C° 0.5 mm 3 mps 719 mmHg 99%
    09:00 +2°C° 0.5 mm 3 mps 719 mmHg 99%
    10:00 +2°C° 0.5 mm 3 mps 720 mmHg 99%
    11:00 +3°C° 0.1 mm 3 mps 720 mmHg 99%
    12:00 +3°C° 0.1 mm 4 mps 720 mmHg 99%
    13:00 +4°C° 0.1 mm 4 mps 720 mmHg 99%
    14:00 +4°C° 1.4 mm 4 mps 720 mmHg 99%
    15:00 +4°C° 1.4 mm 4 mps 720 mmHg 98%
    16:00 +3°C° 1.4 mm 5 mps 720 mmHg 98%
    17:00 +5°C° 1.7 mm 5 mps 720 mmHg 97%
    18:00 +4°C° 1.7 mm 6 mps 721 mmHg 96%
    19:00 +5°C° 1.7 mm 6 mps 721 mmHg 95%
    20:00 +5°C° 0.1 mm 6 mps 721 mmHg 94%
    21:00 +5°C° 0.1 mm 6 mps 721 mmHg 92%
    22:00 +5°C° 0.1 mm 7 mps 721 mmHg 91%
    23:00 +5°C° 0.2 mm 7 mps 722 mmHg 90%

    23 January, Tuesday

    Time Temperature Precipitation Wind Pressure Humidity
    00:00 +5°C° 0.2 mm 7 mps 722 mmHg 89%
    01:00 +6°C° 0.2 mm 7 mps 722 mmHg 88%
    02:00 +6°C° 0.1 mm 7 mps 722 mmHg 88%
    03:00 +6°C° 0.1 mm 7 mps 722 mmHg 88%
    04:00 +6°C° 0.1 mm 7 mps 722 mmHg 88%
    05:00 +6°C° 0.1 mm 7 mps 722 mmHg 88%
    06:00 +6°C° 0.1 mm 7 mps 723 mmHg 87%
    07:00 +6°C° 0.1 mm 7 mps 723 mmHg 87%
    08:00 +6°C° 0.1 mm 7 mps 724 mmHg 86%
    09:00 +6°C° 0.1 mm 8 mps 724 mmHg 85%
    10:00 +7°C° 0.1 mm 8 mps 725 mmHg 84%
    11:00 +7°C° 0 mm 8 mps 725 mmHg 82%
    12:00 +7°C° 0 mm 8 mps 725 mmHg 80%
    13:00 +7°C° 0 mm 8 mps 726 mmHg 78%
    14:00 +8°C° 0 mm 7 mps 726 mmHg 79%
    15:00 +8°C° 0 mm 7 mps 726 mmHg 80%
    16:00 +8°C° 0 mm 6 mps 726 mmHg 81%
    17:00 +7°C° 0.1 mm 6 mps 727 mmHg 83%
    18:00 +7°C° 0.1 mm 6 mps 728 mmHg 85%
    19:00 +7°C° 0.1 mm 6 mps 728 mmHg 86%
    20:00 +7°C° 0.1 mm 5 mps 729 mmHg 87%
    21:00 +6°C° 0.1 mm 5 mps 729 mmHg 88%
    22:00 +6°C° 0.1 mm 5 mps 730 mmHg 89%
    23:00 +6°C° 0 mm 4 mps 730 mmHg 90%

    24 January, Wednesday

    Time Temperature Precipitation Wind Pressure Humidity
    00:00 +5°C° 0 mm 4 mps 730 mmHg 92%
    01:00 +4°C° 0 mm 3 mps 730 mmHg 93%
    02:00 +4°C° 0 mm 3 mps 729 mmHg 93%
    03:00 +4°C° 0 mm 2 mps 729 mmHg 93%
    04:00 +4°C° 0 mm 2 mps 729 mmHg 93%
    05:00 +4°C° 0 mm 2 mps 729 mmHg 93%
    06:00 +4°C° 0 mm 1 mps 729 mmHg 93%
    07:00 +4°C° 0 mm 1 mps 729 mmHg 92%
    08:00 +5°C° 0 mm 1 mps 729 mmHg 90%
    09:00 +6°C° 0 mm 1 mps 729 mmHg 88%
    10:00 +6°C° 0 mm 1 mps 729 mmHg 86%
    11:00 +8°C° 0 mm 1 mps 728 mmHg 82%
    12:00 +9°C° 0 mm 1 mps 728 mmHg 79%
    13:00 +9°C° 0 mm 2 mps 728 mmHg 76%
    14:00 +9°C° 0 mm 2 mps 727 mmHg 79%
    15:00 +8°C° 0 mm 2 mps 727 mmHg 83%
    16:00 +8°C° 0 mm 2 mps 726 mmHg 86%
    17:00 +7°C° 0 mm 2 mps 726 mmHg 89%
    18:00 +5°C° 0 mm 2 mps 726 mmHg 92%
    19:00 +4°C° 0 mm 2 mps 726 mmHg 95%
    20:00 +4°C° 0 mm 2 mps 726 mmHg 95%
    21:00 +4°C° 0 mm 2 mps 726 mmHg 95%
    22:00 +3°C° 0 mm 2 mps 726 mmHg 95%
    23:00 +3°C° 0 mm 2 mps 725 mmHg 94%
    Show more